GW6600 Weather Reports


time (UTC)temp
F
wind
direction
speed
knots
gust
knots
rain 1hr
in
rain 24hr
in
rain mn
in
humidity
%
barometer
mb
20260504000457 60 106 0.0 0.0 0.00 0.00 0.00 45 1017.8
20260503235954 60 155 0.0 0.9 0.00 0.00 0.00 43 1018.0
20260503235451 61 147 0.0 0.0 0.00 0.00 0.00 43 1018.0
20260503234948 62 148 0.0 0.9 0.00 0.00 0.00 41 1018.0
20260503234446 62 144 0.0 0.9 0.00 0.00 0.00 41 1017.9
20260503233944 62 140 0.0 2.6 0.00 0.00 0.00 39 1017.9
20260503233440 63 123 0.0 1.7 0.00 0.00 0.00 40 1017.8
20260503232936 63 191 1.7 1.7 0.00 0.00 0.00 38 1018.0
20260503232433 63 136 0.9 2.6 0.00 0.00 0.00 38 1018.1
20260503231932 63 154 0.9 5.2 0.00 0.00 0.00 37 1018.1
20260503231429 64 133 0.0 0.9 0.00 0.00 0.00 38 1018.3
20260503230925 64 108 0.9 0.9 0.00 0.00 0.00 37 1018.1
20260503230421 64 325 1.7 1.7 0.00 0.00 0.00 37 1018.1
20260503225919 64 91 0.9 0.9 0.00 0.00 0.00 37 1018.3
20260503225416 64 131 0.0 1.7 0.00 0.00 0.00 37 1018.4
20260503224911 64 86 0.9 1.7 0.00 0.00 0.00 35 1018.4
20260503224409 64 148 0.9 5.2 0.00 0.00 0.00 36 1018.6
20260503223906 64 211 2.6 6.1 0.00 0.00 0.00 35 1018.5
20260503223404 64 185 3.5 5.2 0.00 0.00 0.00 34 1018.5
20260503222859 65 66 1.7 2.6 0.00 0.00 0.00 36 1018.7
20260503222358 65 211 2.6 2.6 0.00 0.00 0.00 34 1018.7
20260503221856 66 141 0.9 1.7 0.00 0.00 0.00 34 1018.8
20260503221354 67 145 0.0 5.2 0.00 0.00 0.00 35 1018.6
20260503220850 66 117 0.0 1.7 0.00 0.00 0.00 34 1018.8
20260503220347 66 175 0.9 2.6 0.00 0.00 0.00 34 1018.8
20260503215844 66 195 2.6 2.6 0.00 0.00 0.00 34 1018.8
20260503215341 66 140 0.0 6.1 0.00 0.00 0.00 38 1018.9
20260503214838 66 133 0.9 6.1 0.00 0.00 0.00 35 1018.8
20260503214336 67 101 2.6 3.5 0.00 0.00 0.00 34 1018.9
20260503213833 67 179 1.7 7.8 0.00 0.00 0.00 32 1019.0
20260503213331 67 98 0.9 1.7 0.00 0.00 0.00 33 1018.9
20260503212827 67 221 3.5 5.2 0.00 0.00 0.00 34 1019.2
20260503212325 67 159 1.7 2.6 0.00 0.00 0.00 33 1019.1
20260503211822 66 108 0.0 1.7 0.00 0.00 0.00 36 1019.3
20260503211319 67 155 1.7 1.7 0.00 0.00 0.00 33 1019.2
20260503210819 67 140 0.0 5.2 0.00 0.00 0.00 32 1019.2
20260503210317 67 136 0.9 2.6 0.00 0.00 0.00 34 1019.2
20260503205811 67 183 0.9 2.6 0.00 0.00 0.00 35 1019.4
20260503205308 66 145 0.9 1.7 0.00 0.00 0.00 37 1019.6
20260503204805 66 155 1.7 2.6 0.00 0.00 0.00 33 1019.6
20260503204303 67 152 1.7 2.6 0.00 0.00 0.00 35 1019.5
20260503203800 67 174 4.3 7.8 0.00 0.00 0.00 32 1019.7
20260503203257 66 206 2.6 6.1 0.00 0.00 0.00 33 1019.7
20260503202754 67 152 1.7 2.6 0.00 0.00 0.00 33 1019.8
20260503202252 67 240 2.6 7.0 0.00 0.00 0.00 30 1020.0
20260503201749 66 152 0.0 3.5 0.00 0.00 0.00 32 1019.9
20260503201247 66 142 2.6 3.5 0.00 0.00 0.00 32 1020.1
20260503200743 66 103 0.0 2.6 0.00 0.00 0.00 37 1020.1
20260503200239 66 252 1.7 5.2 0.00 0.00 0.00 30 1020.3
20260503195736 66 189 1.7 6.1 0.00 0.00 0.00 32 1020.4
20260503195233 67 196 3.5 7.0 0.00 0.00 0.00 30 1020.6
20260503194731 67 119 0.9 6.1 0.00 0.00 0.00 31 1020.6
20260503194226 66 10 0.0 0.9 0.00 0.00 0.00 33 1020.5
20260503193723 66 239 2.6 3.5 0.00 0.00 0.00 31 1020.5
20260503193219 66 112 0.0 1.7 0.00 0.00 0.00 35 1020.7
20260503192715 65 128 0.9 2.6 0.00 0.00 0.00 34 1020.7
20260503192210 66 133 0.0 1.7 0.00 0.00 0.00 34 1020.8
20260503191707 65 175 1.7 3.5 0.00 0.00 0.00 33 1021.0
20260503191204 65 13 2.6 2.6 0.00 0.00 0.00 31 1021.0
20260503190701 64 208 0.9 3.5 0.00 0.00 0.00 34 1021.0
20260503190158 64 3 2.6 3.5 0.00 0.00 0.00 32 1021.2
20260503185655 65 256 0.9 1.7 0.00 0.00 0.00 33 1021.1
20260503185150 64 86 0.0 1.7 0.00 0.00 0.00 35 1021.2
20260503184645 64 126 0.9 1.7 0.00 0.00 0.00 36 1021.2
20260503184142 64 84 0.9 2.6 0.00 0.00 0.00 34 1021.3
20260503183638 65 142 0.9 3.5 0.00 0.00 0.00 37 1021.3
20260503183136 64 32 1.7 2.6 0.00 0.00 0.00 34 1021.2
20260503182634 64 91 0.0 0.9 0.00 0.00 0.00 36 1021.5
20260503182132 64 135 0.0 2.6 0.00 0.00 0.00 37 1021.5
20260503181628 63 113 0.0 2.6 0.00 0.00 0.00 34 1021.6
20260503181125 64 328 1.7 3.5 0.00 0.00 0.00 34 1021.8
20260503180622 63 64 1.7 3.5 0.00 0.00 0.00 36 1021.9
20260503180120 63 187 1.7 1.7 0.00 0.00 0.00 35 1022.0
20260503175616 64 228 2.6 3.5 0.00 0.00 0.00 32 1022.0
20260503175114 63 134 0.0 2.6 0.00 0.00 0.00 37 1021.9
20260503174610 62 68 0.9 1.7 0.00 0.00 0.00 32 1022.1
20260503174108 62 159 0.0 0.9 0.00 0.00 0.00 38 1022.1
20260503173602 62 142 0.9 1.7 0.00 0.00 0.00 36 1022.2
20260503173059 61 103 0.0 1.7 0.00 0.00 0.00 37 1022.4
20260503172556 61 0 2.6 3.5 0.00 0.00 0.00 34 1022.2
20260503172053 61 226 1.7 2.6 0.00 0.00 0.00 32 1022.4
20260503171550 61 118 1.7 3.5 0.00 0.00 0.00 33 1022.7
20260503171047 61 226 1.7 6.1 0.00 0.00 0.00 33 1022.8
20260503170543 61 171 1.7 2.6 0.00 0.00 0.00 36 1022.5
20260503150936 60 53 0.0 1.7 0.00 0.00 0.00 37 1023.7
20260503150433 60 96 0.0 1.7 0.00 0.00 0.00 37 1023.5
20260503131326 52 102 0.0 1.7 0.00 0.00 0.00 55 1023.5
20260503130823 52 105 0.0 0.9 0.00 0.00 0.00 54 1023.4
20260503130321 52 291 1.7 1.7 0.00 0.00 0.00 54 1023.5
20260503110714 39 116 0.0 0.0 0.00 0.00 0.00 93 1022.1
20260503110211 39 143 0.0 0.0 0.00 0.00 0.00 93 1022.1
20260503100138 39 143 0.0 0.0 0.00 0.00 0.00 91 1021.4
20260503081532 44 144 0.0 0.0 0.00 0.00 0.00 79 1021.1
20260503081030 44 144 0.0 0.0 0.00 0.00 0.00 77 1020.8
20260503080526 45 145 0.0 0.0 0.00 0.00 0.00 75 1020.6
20260503072459 47 143 0.0 0.0 0.00 0.00 0.00 69 1020.3
20260503071956 47 143 0.0 0.0 0.00 0.00 0.00 68 1020.2
20260503071453 48 143 0.0 0.9 0.00 0.00 0.00 67 1020.3
20260503070949 48 96 0.0 0.0 0.00 0.00 0.00 66 1020.1
20260503070446 48 120 0.0 0.0 0.00 0.00 0.00 66 1020.2
20260503054906 51 85 0.9 0.9 0.00 0.00 0.00 58 1020.2
20260503054402 52 61 0.0 0.9 0.00 0.00 0.00 57 1019.9
20260503053900 51 344 1.7 2.6 0.00 0.00 0.00 57 1019.9
20260503053358 51 5 0.9 1.7 0.00 0.00 0.00 58 1019.9
20260503052854 51 82 0.0 0.9 0.00 0.00 0.00 58 1020.2
20260503052351 51 119 0.0 1.7 0.00 0.00 0.00 61 1020.0
20260503051847 51 93 0.0 0.9 0.00 0.00 0.00 61 1020.1
20260503051343 51 84 0.0 0.9 0.00 0.00 0.00 60 1019.8
20260503050841 51 103 0.0 0.0 0.00 0.00 0.00 60 1019.9
20260503050337 51 103 0.0 0.0 0.00 0.00 0.00 60 1019.9
20260503045834 51 92 0.0 0.0 0.00 0.00 0.00 60 1020.0
20260503045332 51 46 0.0 0.0 0.00 0.00 0.00 59 1019.8
20260503044828 51 91 0.0 0.9 0.00 0.00 0.00 59 1019.9
20260503044325 51 111 0.0 0.0 0.00 0.00 0.00 60 1019.8
20260503043822 51 111 0.0 0.9 0.00 0.00 0.00 58 1019.8
20260503043319 52 101 0.0 0.9 0.00 0.00 0.00 59 1019.9
20260503042815 52 110 0.9 0.9 0.00 0.00 0.00 57 1019.8
20260503042312 52 106 0.0 0.0 0.00 0.00 0.00 59 1019.8
20260503041808 52 83 0.9 0.9 0.00 0.00 0.00 56 1019.6
20260503041306 53 101 0.0 0.0 0.00 0.00 0.00 56 1019.5
20260503040803 53 101 0.0 0.9 0.00 0.00 0.00 56 1019.4
20260503040301 53 86 0.0 0.9 0.00 0.00 0.00 55 1019.5
20260503035757 53 135 0.0 1.7 0.00 0.00 0.00 55 1019.6
20260503035255 53 80 0.0 1.7 0.00 0.00 0.00 53 1019.6
20260503034752 53 85 0.0 0.9 0.00 0.00 0.00 54 1019.4
20260503034249 53 118 0.0 0.9 0.00 0.00 0.00 54 1019.5
20260503033746 53 277 2.6 5.2 0.00 0.00 0.00 53 1019.5
20260503033244 53 100 0.0 0.9 0.00 0.00 0.00 53 1019.5
20260503032742 53 327 1.7 2.6 0.00 0.00 0.00 53 1019.5
20260503032240 54 160 0.9 5.2 0.00 0.00 0.00 52 1019.3
20260503031737 54 133 0.9 3.5 0.00 0.00 0.00 52 1019.6
20260503031235 54 84 0.0 0.9 0.00 0.00 0.00 52 1019.3
20260503030731 54 308 3.5 5.2 0.00 0.00 0.00 51 1019.6
20260503030228 54 101 0.0 2.6 0.00 0.00 0.00 51 1019.4
20260503025724 54 114 0.9 2.6 0.00 0.00 0.00 51 1019.2
20260503025222 54 132 0.9 3.5 0.00 0.00 0.00 51 1019.2
20260503024719 54 92 0.0 0.9 0.00 0.00 0.00 51 1019.2
20260503024216 54 127 0.0 2.6 0.00 0.00 0.00 51 1019.2
20260503023713 54 122 0.0 0.9 0.00 0.00 0.00 52 1019.0
20260503023209 54 91 0.9 2.6 0.00 0.00 0.00 51 1019.0
20260503022706 54 103 0.0 0.9 0.00 0.00 0.00 51 1019.1
20260503022205 54 114 0.0 0.0 0.00 0.00 0.00 54 1019.0
20260503021702 53 76 0.9 2.6 0.00 0.00 0.00 54 1018.9
20260503021159 54 110 0.0 0.0 0.00 0.00 0.00 52 1018.9
20260503020656 54 110 0.0 0.0 0.00 0.00 0.00 52 1019.0
20260503020154 54 110 0.0 0.0 0.00 0.00 0.00 50 1018.8
20260503015650 54 35 1.7 3.5 0.00 0.00 0.00 49 1018.8
20260503015147 54 52 0.9 2.6 0.00 0.00 0.00 49 1018.6
20260503014643 55 92 0.0 1.7 0.00 0.00 0.00 49 1018.5
20260503014141 54 88 0.9 0.9 0.00 0.00 0.00 50 1018.6
20260503013638 54 90 0.0 0.9 0.00 0.00 0.00 50 1018.5
20260503013136 54 100 0.0 0.9 0.00 0.00 0.00 52 1018.5
20260503012633 54 101 0.0 0.9 0.00 0.00 0.00 53 1018.3
20260503012129 54 112 0.0 1.7 0.00 0.00 0.00 50 1018.3
20260503011626 54 133 0.0 0.9 0.00 0.00 0.00 50 1018.1
20260503011123 54 75 0.9 1.7 0.00 0.00 0.00 50 1018.1
20260503010619 53 94 0.9 5.2 0.00 0.00 0.00 51 1017.9
20260503010117 54 119 0.0 0.0 0.00 0.00 0.00 51 1017.9
20260503005614 54 119 0.0 0.0 0.00 0.00 0.00 50 1017.8
20260503005111 55 119 0.0 0.0 0.00 0.00 0.00 48 1017.8
20260503004607 56 117 0.9 0.9 0.00 0.00 0.00 49 1017.8
20260503004106 56 101 0.0 0.9 0.00 0.00 0.00 46 1017.7
20260503003602 56 263 0.9 2.6 0.00 0.00 0.00 46 1017.5
20260503003059 56 91 0.0 0.9 0.00 0.00 0.00 47 1017.5
20260503002556 56 32 0.9 2.6 0.00 0.00 0.00 45 1017.4
20260503002053 56 126 0.0 0.9 0.00 0.00 0.00 45 1017.5
20260503001549 56 88 0.0 0.0 0.00 0.00 0.00 44 1017.4
20260503001047 57 102 0.0 0.9 0.00 0.00 0.00 44 1017.2